When you browse on this site, cookies collect data to enhance your experience and personalize the content and advertising you see.
Visit our Privacy Policy to learn more. By continuing to use the site, you agree to this use of cookies and data.
  • en Suisse
  • Liste des pays
  • À 7 jours
  • Température de l'eau
  • Carte météo
  • Widgets météo
  • user-avatar
    Se connecter

    Météo par heure à Lyubanovo

    Ce jour, 13 Décembre, Vendredi

    Heure Température Précipitation Vent Pression Humidité
    00:00 -1°C° 0 mm 5 m/s 746 mmHg 94%
    01:00 -1°C° 0 mm 5 m/s 746 mmHg 94%
    02:00 -1°C° 0 mm 4 m/s 746 mmHg 92%
    03:00 -1°C° 0 mm 4 m/s 745 mmHg 91%
    04:00 -1°C° 0 mm 4 m/s 745 mmHg 91%
    05:00 -2°C° 0 mm 4 m/s 744 mmHg 91%
    06:00 -2°C° 0.1 mm 4 m/s 744 mmHg 92%
    07:00 -2°C° 0.1 mm 4 m/s 744 mmHg 92%
    08:00 -2°C° 0.1 mm 4 m/s 744 mmHg 93%
    09:00 -2°C° 0 mm 4 m/s 744 mmHg 91%
    10:00 -1°C° 0 mm 4 m/s 744 mmHg 89%
    11:00 -1°C° 0 mm 5 m/s 743 mmHg 88%
    12:00 -1°C° 0 mm 5 m/s 743 mmHg 87%
    13:00 -1°C° 0 mm 5 m/s 743 mmHg 86%
    14:00 -1°C° 0 mm 5 m/s 743 mmHg 85%
    15:00 -2°C° 0 mm 5 m/s 742 mmHg 86%
    16:00 -2°C° 0 mm 5 m/s 742 mmHg 88%
    17:00 -2°C° 0 mm 4 m/s 742 mmHg 89%
    18:00 -2°C° 0 mm 4 m/s 742 mmHg 88%
    19:00 -2°C° 0 mm 5 m/s 742 mmHg 87%
    20:00 -2°C° 0 mm 5 m/s 742 mmHg 86%
    21:00 -2°C° 0 mm 5 m/s 742 mmHg 86%
    22:00 -2°C° 0 mm 5 m/s 742 mmHg 86%
    23:00 -1°C° 0 mm 5 m/s 742 mmHg 86%

    Demain, 14 Décembre, Samedi

    Heure Température Précipitation Vent Pression Humidité
    00:00 -1°C° 0 mm 5 m/s 742 mmHg 85%
    01:00 -2°C° 0 mm 5 m/s 742 mmHg 85%
    02:00 -2°C° 0 mm 5 m/s 742 mmHg 84%
    03:00 -2°C° 0 mm 5 m/s 742 mmHg 85%
    04:00 -2°C° 0 mm 5 m/s 742 mmHg 85%
    05:00 -2°C° 0 mm 5 m/s 741 mmHg 85%
    06:00 -2°C° 0 mm 5 m/s 742 mmHg 85%
    07:00 -2°C° 0 mm 5 m/s 742 mmHg 85%
    08:00 -2°C° 0 mm 4 m/s 742 mmHg 85%
    09:00 -2°C° 0 mm 4 m/s 742 mmHg 85%
    10:00 -2°C° 0 mm 5 m/s 742 mmHg 85%
    11:00 -2°C° 0 mm 5 m/s 742 mmHg 84%
    12:00 -2°C° 0 mm 5 m/s 742 mmHg 84%
    13:00 -1°C° 0 mm 5 m/s 742 mmHg 84%
    14:00 -1°C° 0 mm 4 m/s 742 mmHg 84%
    15:00 -1°C° 0 mm 4 m/s 742 mmHg 86%
    16:00 -1°C° 0 mm 4 m/s 742 mmHg 87%
    17:00 -2°C° 0 mm 4 m/s 742 mmHg 88%
    18:00 -2°C° 0.1 mm 4 m/s 742 mmHg 90%
    19:00 -2°C° 0.1 mm 5 m/s 742 mmHg 91%
    20:00 -2°C° 0.1 mm 5 m/s 742 mmHg 92%
    21:00 -2°C° 0 mm 5 m/s 741 mmHg 92%
    22:00 -2°C° 0 mm 4 m/s 741 mmHg 93%
    23:00 -2°C° 0 mm 4 m/s 741 mmHg 93%

    Après-demain, 15 Décembre, Dimanche

    Heure Température Précipitation Vent Pression Humidité
    00:00 -1°C° 0 mm 4 m/s 741 mmHg 93%
    01:00 -1°C° 0 mm 4 m/s 740 mmHg 94%
    02:00 0°C° 0 mm 4 m/s 740 mmHg 94%
    03:00 0°C° 0.2 mm 4 m/s 740 mmHg 94%
    04:00 0°C° 0.2 mm 4 m/s 739 mmHg 95%
    05:00 0°C° 0.2 mm 5 m/s 738 mmHg 95%
    06:00 +1°C° 0.2 mm 5 m/s 738 mmHg 95%
    07:00 +1°C° 0.2 mm 5 m/s 738 mmHg 95%
    08:00 +2°C° 0.2 mm 5 m/s 738 mmHg 94%
    09:00 +2°C° 0.3 mm 5 m/s 738 mmHg 94%
    10:00 +2°C° 0.3 mm 5 m/s 738 mmHg 94%
    11:00 +2°C° 0.3 mm 5 m/s 738 mmHg 93%
    12:00 +2°C° 0.1 mm 5 m/s 739 mmHg 90%
    13:00 +2°C° 0.1 mm 5 m/s 739 mmHg 87%
    14:00 +1°C° 0.1 mm 5 m/s 740 mmHg 84%
    15:00 0°C° 0 mm 4 m/s 740 mmHg 85%
    16:00 0°C° 0 mm 4 m/s 741 mmHg 86%
    17:00 -1°C° 0 mm 4 m/s 742 mmHg 87%
    18:00 -1°C° 0 mm 4 m/s 742 mmHg 88%
    19:00 -1°C° 0 mm 4 m/s 742 mmHg 89%
    20:00 -1°C° 0 mm 4 m/s 742 mmHg 89%
    21:00 -1°C° 0 mm 4 m/s 742 mmHg 89%
    22:00 0°C° 0 mm 5 m/s 742 mmHg 88%
    23:00 0°C° 0 mm 5 m/s 742 mmHg 88%

    16 Décembre, Lundi

    Heure Température Précipitation Vent Pression Humidité
    00:00 +1°C° 0.1 mm 6 m/s 741 mmHg 89%
    01:00 +1°C° 0.1 mm 6 m/s 741 mmHg 90%
    02:00 0°C° 0.1 mm 7 m/s 741 mmHg 90%
    03:00 +1°C° 0 mm 6 m/s 741 mmHg 90%
    04:00 +1°C° 0 mm 5 m/s 742 mmHg 91%
    05:00 +1°C° 0 mm 5 m/s 742 mmHg 91%
    06:00 +1°C° 0 mm 5 m/s 742 mmHg 90%
    07:00 +1°C° 0 mm 5 m/s 743 mmHg 90%
    08:00 0°C° 0 mm 5 m/s 743 mmHg 89%
    09:00 0°C° 0 mm 5 m/s 743 mmHg 87%
    10:00 +1°C° 0 mm 5 m/s 744 mmHg 85%
    11:00 +1°C° 0 mm 5 m/s 744 mmHg 83%
    12:00 +1°C° 0 mm 5 m/s 744 mmHg 80%
    13:00 +1°C° 0 mm 5 m/s 744 mmHg 78%
    14:00 0°C° 0 mm 5 m/s 745 mmHg 75%
    15:00 0°C° 0 mm 4 m/s 745 mmHg 78%
    16:00 -1°C° 0 mm 4 m/s 745 mmHg 81%
    17:00 -1°C° 0 mm 4 m/s 746 mmHg 84%
    18:00 -1°C° 0 mm 4 m/s 746 mmHg 85%
    19:00 -1°C° 0 mm 3 m/s 746 mmHg 85%
    20:00 -1°C° 0 mm 3 m/s 747 mmHg 86%
    21:00 -1°C° 0 mm 3 m/s 747 mmHg 86%
    22:00 -1°C° 0 mm 3 m/s 747 mmHg 86%
    23:00 -1°C° 0 mm 3 m/s 747 mmHg 86%

    17 Décembre, Mardi

    Heure Température Précipitation Vent Pression Humidité
    00:00 -1°C° 0 mm 3 m/s 747 mmHg 85%
    01:00 -1°C° 0 mm 3 m/s 747 mmHg 84%
    02:00 0°C° 0 mm 3 m/s 747 mmHg 83%
    03:00 0°C° 0 mm 3 m/s 747 mmHg 86%
    04:00 0°C° 0 mm 3 m/s 747 mmHg 89%
    05:00 +1°C° 0 mm 3 m/s 746 mmHg 92%
    06:00 +1°C° 0.4 mm 3 m/s 746 mmHg 94%
    07:00 +1°C° 0.4 mm 3 m/s 746 mmHg 95%
    08:00 +1°C° 0.4 mm 4 m/s 746 mmHg 97%
    09:00 +1°C° 0.3 mm 4 m/s 746 mmHg 96%
    10:00 +2°C° 0.3 mm 3 m/s 746 mmHg 95%
    11:00 +2°C° 0.3 mm 3 m/s 746 mmHg 95%
    12:00 +2°C° 0.1 mm 3 m/s 746 mmHg 94%
    13:00 +2°C° 0.1 mm 3 m/s 746 mmHg 94%
    14:00 +2°C° 0.1 mm 3 m/s 745 mmHg 94%
    15:00 +2°C° 0 mm 3 m/s 745 mmHg 94%
    16:00 +1°C° 0 mm 3 m/s 745 mmHg 95%
    17:00 +1°C° 0 mm 3 m/s 745 mmHg 95%
    18:00 +1°C° 0 mm 3 m/s 745 mmHg 95%
    19:00 +1°C° 0 mm 3 m/s 745 mmHg 95%
    20:00 +1°C° 0 mm 2 m/s 745 mmHg 95%
    21:00 0°C° 0 mm 3 m/s 745 mmHg 95%
    22:00 0°C° 0 mm 3 m/s 745 mmHg 95%
    23:00 0°C° 0 mm 3 m/s 745 mmHg 95%

    18 Décembre, Mercredi

    Heure Température Précipitation Vent Pression Humidité
    00:00 0°C° 0 mm 3 m/s 745 mmHg 95%
    01:00 0°C° 0 mm 3 m/s 745 mmHg 95%
    02:00 +1°C° 0 mm 2 m/s 745 mmHg 95%
    03:00 +1°C° 0 mm 2 m/s 745 mmHg 95%
    04:00 +1°C° 0 mm 2 m/s 745 mmHg 95%
    05:00 +1°C° 0 mm 2 m/s 744 mmHg 95%
    06:00 +1°C° 0 mm 2 m/s 744 mmHg 95%
    07:00 +1°C° 0 mm 2 m/s 744 mmHg 95%
    08:00 +1°C° 0 mm 2 m/s 744 mmHg 95%
    09:00 +2°C° 0 mm 2 m/s 744 mmHg 93%
    10:00 +2°C° 0 mm 2 m/s 744 mmHg 92%
    11:00 +3°C° 0 mm 2 m/s 744 mmHg 91%
    12:00 +3°C° 0 mm 2 m/s 743 mmHg 91%
    13:00 +3°C° 0 mm 2 m/s 743 mmHg 92%
    14:00 +3°C° 0 mm 2 m/s 743 mmHg 92%
    15:00 +2°C° 0 mm 2 m/s 743 mmHg 93%
    16:00 +2°C° 0 mm 2 m/s 743 mmHg 93%
    17:00 +1°C° 0 mm 2 m/s 743 mmHg 94%
    18:00 +1°C° 0 mm 2 m/s 743 mmHg 94%
    19:00 +1°C° 0 mm 2 m/s 743 mmHg 95%
    20:00 +1°C° 0 mm 2 m/s 742 mmHg 95%
    21:00 0°C° 0 mm 3 m/s 742 mmHg 95%
    22:00 0°C° 0 mm 3 m/s 742 mmHg 94%
    23:00 0°C° 0 mm 3 m/s 742 mmHg 94%
    Voir plus